Voltar ao catálogo

COSMOS 1275 DEB

LostPO
NORAD 42207·DEBRIS·🇷🇺 Russia

Lançado Jun 4, 1981 de Plesetsk Cosmodrome

Loading…

Próximas Passagens (próximas 24 horas)

TLE

ObsoletoSource: Space-Track

Época: Oct 23, 2023, 10:53 UTC

1 42207U 81053TX  23296.45412330  .00002222  00000-0  27143-2 0  9993
2 42207  83.0558 351.8309 0208922 138.4458 223.2785 13.56591642 52032

Acompanhe COSMOS 1275 DEB em tempo real com AllMySat

Download on the App Store